Location: Usti nad Orlici
(49.9830°N, 16.4000°E)
Time: 17:41:14
(UTC+02:00)

ISS - Visible Passes

Search period start: 16 May 2021 00:00
Search period end: 26 May 2021 00:00
Orbit: 417 x 422 km, 51.6° (Epoch: 15 May)

Date Brightness Start Highest point End Pass type
(mag) Time Alt. Az. Time Alt. Az. Time Alt. Az.
16 May -3.5 01:18:05 10° WNW 01:21:27 67° N 01:24:50 10° E visible
16 May -3.7 02:54:58 10° WNW 02:58:15 50° SSW 03:01:32 10° SE visible
16 May -2.6 21:17:47 10° SSW 21:20:30 23° SE 21:23:15 10° E visible
16 May -3.9 22:53:38 10° WSW 22:57:00 85° SSE 23:00:24 10° ENE visible
17 May -3.4 00:30:35 10° W 00:33:57 63° N 00:37:19 10° E visible
17 May -3.9 02:07:28 10° WNW 02:10:51 69° SSW 02:14:12 10° ESE visible
17 May -2.2 03:44:59 10° W 03:47:12 17° SW 03:49:30 10° S visible
17 May -3.8 22:06:14 10° WSW 22:09:34 65° SSE 22:12:55 10° ENE visible
17 May -3.4 23:43:05 10° W 23:46:26 64° N 23:49:48 10° E visible
18 May -3.6 01:20:01 10° WNW 01:22:52 61° WNW 01:22:52 61° WNW visible
18 May -3.5 21:18:55 10° SW 21:22:09 47° SSE 21:25:25 10° ENE visible
18 May -3.5 22:55:34 10° W 22:58:56 69° N 23:02:18 10° ENE visible
19 May -3.7 00:32:32 10° WNW 00:35:55 77° NNE 00:36:27 59° E visible
19 May -3.6 22:08:03 10° W 22:11:26 79° NNW 22:14:49 10° ENE visible
19 May -3.5 23:45:03 10° WNW 23:48:25 67° N 23:50:16 24° E visible
20 May -1.9 01:21:55 10° WNW 01:23:11 20° W 01:23:11 20° W visible
20 May -3.8 21:20:35 10° WSW 21:23:57 85° SSE 21:27:20 10° ENE visible
20 May -3.3 22:57:32 10° W 23:00:53 63° N 23:04:10 11° E visible
21 May -3.3 00:34:25 10° WNW 00:37:05 50° W 00:37:05 50° W visible
21 May -3.3 22:10:01 10° W 22:13:22 64° N 22:16:44 10° E visible
21 May -3.9 23:46:56 10° WNW 23:50:19 88° SSW 23:51:02 53° ESE visible
22 May -3.4 21:22:29 10° W 21:25:51 69° N 21:29:12 10° ENE visible
22 May -3.7 22:59:26 10° WNW 23:02:49 77° NNE 23:05:00 20° E visible
23 May -2.0 00:36:23 10° W 00:37:57 22° W 00:37:57 22° W visible
23 May -3.4 22:11:56 10° WNW 22:15:18 67° N 22:18:39 10° E visible
23 May -3.5 23:48:49 10° WNW 23:51:56 49° SW 23:51:56 49° SW visible
24 May -3.3 21:24:25 10° W 21:27:46 63° N 21:31:07 10° E visible
24 May -3.8 23:01:17 10° WNW 23:04:39 69° SSW 23:05:58 33° SE visible
25 May -1.1 00:38:44 10° W 00:38:54 11° W 00:38:54 11° W visible
25 May -3.8 22:13:47 10° WNW 22:17:10 88° SSW 22:20:01 14° ESE visible
25 May -2.2 23:50:53 10° W 23:52:58 23° WSW 23:52:58 23° WSW visible
